Home   Weather   Whistler   Past weeks

Flag for Canada Past Weather in Whistler, British Columbia, Canada — Yesterday and Last 2 Weeks

Now
59 °F

Cool.


Feels Like: 59 °F
Forecast: 34 / 60 °F
Wind: 2 mph from Southeast

Location: Squamish Airport

Current Time: Sep 29, 2016 at 6:43:55 PM

Latest Report: Sep 29, 2016 at 6:00 PM


Visibility: N/A

Pressure: 30.01 "Hg (27.70 "Hg at 674m altitude)

Humidity: 64%

Dew Point: 46 °F

Location of WhistlerLocation

Past Weather in Whistler — Graph

°F

Whistler Temperature Yesterday

Maximum temperature yesterday: 70 °F (at 3:00 PM)
Minimum temperature yesterday: 44 °F (at 5:00 AM)
Average temperature yesterday: 54 °F

High & Low Weather Summary for the Past Weeks

 TemperatureHumidityPressure
High76 °F (Sep 21, 3:00 PM)100% (Sep 15, 8:00 AM)30.44 "Hg (Sep 15, 8:00 AM)
Low40 °F (Sep 29, 8:00 AM)23% (Sep 21, 3:00 PM)29.73 "Hg (Sep 17, 3:00 PM)
Average55 °F82%30.08 "Hg
* Reported Sep 14 5:00 PM — Sep 29 5:00 PM, Whistler, Weather by CustomWeather, © 2016

Note: Actual official high and low records may vary slightly from our data, if they occured in-between our weather recording intervals... More about our weather records

Advertising

Whistler Weather History for the Previous 24 Hours

Scroll right to see more
 ConditionsComfort  
Time TempWeatherWind HumidityBarometerVisibility
5:00 PM
Thu, Sep 29
61 °FRefreshingly cool.5 mph59%30.01 "HgN/A
4:00 PM62 °FRefreshingly cool.6 mph52%30.01 "HgN/A
3:00 PM63 °FMild.7 mph48%30.01 "HgN/A
2:00 PM64 °FMild.9 mph44%30.02 "HgN/A
1:00 PM64 °FMild.2 mph40%30.03 "HgN/A
12:00 PM60 °FRefreshingly cool.1 mph48%30.05 "HgN/A
11:00 AM53 °FCool.2 mph68%30.07 "HgN/A
10:00 AM48 °FCool.3 mph80%30.08 "HgN/A
9:00 AM45 °FCool.1 mph91%30.08 "HgN/A
8:00 AM40 °FQuite cool.1 mph100%30.08 "HgN/A
7:00 AM41 °FQuite cool.1 mph95%30.07 "HgN/A
6:00 AM41 °FQuite cool.1 mph89%30.06 "HgN/A
5:00 AM42 °FQuite cool.1 mph95%30.06 "HgN/A
4:00 AM43 °FQuite cool.1 mph94%30.06 "HgN/A
3:00 AM43 °FQuite cool.1 mph94%30.06 "HgN/A
2:00 AM45 °FQuite cool.2 mph93%30.05 "HgN/A
1:00 AM46 °FCool.2 mph87%30.05 "HgN/A
12:00 AM46 °FCool.1 mph93%30.05 "HgN/A
11:00 PM
Wed, Sep 28
47 °FCool.1 mph93%30.05 "HgN/A
10:00 PM48 °FCool.1 mph92%30.04 "HgN/A
9:00 PM50 °FCool.1 mph88%30.03 "HgN/A
8:00 PM51 °FCool.1 mph81%30.03 "HgN/A
7:00 PM54 °FCool.1 mph80%30.02 "HgN/A
6:00 PM59 °FCool.2 mph62%30.01 "HgN/A
Weather by CustomWeather, © 2016

See weather overviewHow to use our weather pages